Location: Unspecified
(35.2068°N, 0.0000°E)
Time: 00:41:45
(UTC+00:00)

Cosmos 923 - Visible Passes

Search period start: 04 April 2026 00:00
Search period end: 14 April 2026 00:00
Orbit: 774 x 790 km, 74.0° (Epoch: 29 March)

Date Brightness Start Highest point End Pass type
(mag) Time Alt. Az. Time Alt. Az. Time Alt. Az.
8 Apr 8.8 22:39:52 13° NNW 22:39:52 13° NNW 22:40:35 10° N visible
9 Apr 8.4 22:06:42 18° N 22:06:42 18° N 22:08:12 10° N visible
10 Apr 7.8 21:33:22 25° N 21:33:22 25° N 21:35:35 10° N visible
11 Apr 7.1 20:59:44 35° NNE 20:59:44 35° NNE 21:02:46 10° NNE visible
11 Apr 8.9 22:40:11 11° WNW 22:40:27 11° WNW 22:42:06 10° NW visible
12 Apr 6.4 20:25:39 43° ENE 20:25:39 43° ENE 20:29:45 10° NNE visible
12 Apr 8.4 22:06:03 17° W 22:07:18 18° WNW 22:10:53 10° NNW visible
13 Apr 6.8 19:50:34 26° SE 19:51:59 29° E 19:56:30 10° NE visible
13 Apr 7.8 21:30:50 15° WSW 21:34:13 28° WNW 21:38:45 10° N visible
